"read_dt","SO2 (ppb)","flags","PMT voltage (V)","lamp voltage (V)","lamp intensity (Hz)","internal temp (C)","react chamber temp (C)","sample flow (l/min)","pres (mmHg)","SO2 bkg (ppb)","SO2 coefficient"
2014-04-29 00:00:00,3154E-2,5C000000,-0724,1027,10063,024.2,045.2,0.306,748.0,01.17,0.508
2014-04-29 00:01:00,3111E-2,5C000000,-0724,1027,10229,024.2,045.2,0.308,748.1,01.17,0.508
2014-04-29 00:02:00,3152E-2,5C000000,-0724,1026,10336,024.2,045.2,0.305,748.1,01.17,0.508
2014-04-29 00:03:00,3090E-2,5C000000,-0724,1028,10275,024.2,045.2,0.305,748.0,01.17,0.508
2014-04-29 00:04:00,3083E-2,5C000000,-0724,1028,10246,024.2,045.2,0.303,748.1,01.17,0.508
2014-04-29 00:05:00,3121E-2,5C000000,-0724,1027,10137,024.2,045.2,0.306,748.1,01.17,0.508
2014-04-29 00:06:00,3147E-2,5C000000,-0724,1027,10218,024.2,045.2,0.305,748.1,01.17,0.508
2014-04-29 00:07:00,3123E-2,5C000000,-0724,1027,10281,024.2,045.2,0.302,748.1,01.17,0.508
2014-04-29 00:08:00,3125E-2,5C000000,-0724,1027,10099,024.2,045.2,0.301,748.1,01.17,0.508
2014-04-29 00:09:00,3064E-2,5C000000,-0724,1027,10289,024.2,045.2,0.297,748.0,01.17,0.508
2014-04-29 00:10:00,3109E-2,5C000000,-0724,1025,10291,024.2,045.2,0.300,748.0,01.17,0.508
2014-04-29 00:11:00,3054E-2,5C000000,-0724,1026,10376,024.2,045.2,0.299,748.1,01.17,0.508
2014-04-29 00:12:00,3051E-2,5C000000,-0724,1026,10323,024.2,045.2,0.298,748.0,01.17,0.508
2014-04-29 00:13:00,3065E-2,5C000000,-0724,1026,10337,024.2,045.2,0.297,748.0,01.17,0.508
2014-04-29 00:14:00,3083E-2,5C000000,-0724,1025,10220,024.2,045.2,0.297,748.0,01.17,0.508
2014-04-29 00:15:00,3067E-2,5C000000,-0724,1027,10314,024.2,045.2,0.294,748.0,01.17,0.508
2014-04-29 00:16:00,3050E-2,5C000000,-0724,1026,10379,024.2,045.2,0.295,748.0,01.17,0.508
2014-04-29 00:17:00,3096E-2,5C000000,-0724,1025,10353,024.2,045.2,0.293,748.0,01.17,0.508
2014-04-29 00:18:00,3081E-2,5C000000,-0724,1027,10223,024.2,045.2,0.289,747.9,01.17,0.508
2014-04-29 00:19:00,3048E-2,5C000000,-0724,1026,10318,024.3,045.2,0.289,747.9,01.17,0.508
2014-04-29 00:20:00,3087E-2,5C000000,-0724,1026,10254,024.3,045.2,0.295,748.0,01.17,0.508
2014-04-29 00:21:00,3051E-2,5C000000,-0724,1025,10443,024.3,045.2,0.294,748.0,01.17,0.508
2014-04-29 00:22:00,3103E-2,5C000000,-0724,1024,10278,024.3,045.2,0.289,747.9,01.17,0.508
2014-04-29 00:23:00,3112E-2,5C000000,-0724,1026,10329,024.3,045.2,0.291,747.9,01.17,0.508
2014-04-29 00:24:00,3119E-2,5C000000,-0724,1024,10368,024.3,045.2,0.293,748.0,01.17,0.508
2014-04-29 00:25:00,3115E-2,5C000000,-0724,1026,10329,024.3,045.2,0.286,747.9,01.17,0.508
2014-04-29 00:26:00,3124E-2,5C000000,-0724,1026,10377,024.3,045.2,0.285,747.9,01.17,0.508
2014-04-29 00:27:00,3125E-2,5C000000,-0724,1026,10245,024.3,045.2,0.282,747.8,01.17,0.508
2014-04-29 00:28:00,3134E-2,5C000000,-0724,1026,10220,024.3,045.2,0.287,748.0,01.17,0.508
2014-04-29 00:29:00,3119E-2,5C000000,-0724,1025,10270,024.3,045.2,0.283,747.9,01.17,0.508
2014-04-29 00:30:00,3085E-2,5C000000,-0724,1024,10246,024.3,045.2,0.281,747.9,01.17,0.508
2014-04-29 00:31:00,3091E-2,5C000000,-0724,1025,10121,024.3,045.2,0.278,747.8,01.17,0.508
2014-04-29 00:32:00,3130E-2,5C000000,-0724,1025,10305,024.3,045.2,0.280,747.9,01.17,0.508
2014-04-29 00:33:00,3114E-2,5C000000,-0724,1024,10125,024.4,045.2,0.279,747.9,01.17,0.508
2014-04-29 00:34:00,3125E-2,5C000400,-0724,1025,10218,024.3,045.2,0.272,747.8,01.17,0.508
2014-04-29 00:35:00,3142E-2,5C000000,-0724,1025,10333,024.3,045.2,0.275,747.8,01.17,0.508
2014-04-29 00:36:00,3064E-2,5C000000,-0724,1025,10261,024.4,045.2,0.281,747.9,01.17,0.508
2014-04-29 00:37:00,3166E-2,5C000000,-0724,1025,10225,024.4,045.2,0.279,747.9,01.17,0.508
2014-04-29 00:38:00,3141E-2,5C000000,-0724,1024,10340,024.4,045.2,0.275,747.9,01.17,0.508
2014-04-29 00:39:00,3127E-2,5C000400,-0724,1024,10348,024.4,045.2,0.273,747.8,01.17,0.508
2014-04-29 00:40:00,3113E-2,5C000000,-0724,1026,10178,024.4,045.2,0.275,747.9,01.17,0.508
2014-04-29 00:41:00,3100E-2,5C000000,-0724,1026,10338,024.4,045.2,0.275,747.9,01.17,0.508
2014-04-29 00:42:00,3151E-2,5C000400,-0724,1025,10212,024.4,045.2,0.274,747.9,01.17,0.508
2014-04-29 00:43:00,3145E-2,5C000000,-0724,1025,10332,024.4,045.2,0.276,747.9,01.17,0.508
2014-04-29 00:44:00,3113E-2,5C000400,-0724,1025,10316,024.4,045.2,0.270,747.9,01.17,0.508
2014-04-29 00:45:00,3139E-2,5C000400,-0724,1025,10247,024.4,045.2,0.266,747.8,01.17,0.508
2014-04-29 00:46:00,3132E-2,5C000400,-0724,1025,10239,024.4,045.2,0.268,747.9,01.17,0.508
2014-04-29 00:47:00,3168E-2,5C000400,-0724,1025,10353,024.5,045.2,0.270,747.9,01.17,0.508
2014-04-29 00:48:00,3128E-2,5C000400,-0724,1025,10192,024.5,045.2,0.272,747.9,01.17,0.508
2014-04-29 00:49:00,3122E-2,5C000400,-0724,1026,10015,024.5,045.2,0.260,747.8,01.17,0.508
2014-04-29 00:50:00,3133E-2,5C000400,-0724,1026,10333,024.5,045.2,0.262,747.8,01.17,0.508
2014-04-29 00:51:00,3133E-2,5C000400,-0724,1027,10340,024.5,045.2,0.265,747.9,01.17,0.508
2014-04-29 00:52:00,3167E-2,5C000400,-0724,1027,10300,024.5,045.2,0.261,747.8,01.17,0.508
2014-04-29 00:53:00,3159E-2,5C000400,-0724,1028,10346,024.5,045.2,0.259,747.8,01.17,0.508
2014-04-29 00:54:00,3164E-2,5C000400,-0724,1027,10094,024.5,045.2,0.264,747.8,01.17,0.508
2014-04-29 00:55:00,3142E-2,5C000400,-0724,1026,10038,024.5,045.2,0.261,747.8,01.17,0.508
2014-04-29 00:56:00,3170E-2,5C000400,-0724,1027,10343,024.5,045.2,0.252,747.8,01.17,0.508
2014-04-29 00:57:00,3202E-2,5C000400,-0724,1027,10436,024.5,045.2,0.251,747.8,01.17,0.508
2014-04-29 00:58:00,3207E-2,5C000400,-0724,1027,10235,024.5,045.2,0.254,747.8,01.17,0.508
2014-04-29 00:59:00,3201E-2,5C000400,-0724,1026,10262,024.5,045.2,0.249,747.8,01.17,0.508
2014-04-29 01:00:00,3149E-2,5C000400,-0724,1028,10302,024.6,045.2,0.254,747.8,01.17,0.508
2014-04-29 01:01:00,3143E-2,5C000400,-0724,1028,10207,024.6,045.2,0.257,747.9,01.17,0.508
2014-04-29 01:02:00,3165E-2,5C000400,-0724,1029,10288,024.6,045.2,0.245,747.8,01.17,0.508
2014-04-29 01:03:00,3180E-2,5C000400,-0724,1030,10351,024.6,045.2,0.236,747.8,01.17,0.508
2014-04-29 01:04:00,3187E-2,5C000400,-0724,1029,10209,024.6,045.2,0.226,747.7,01.17,0.508
2014-04-29 01:05:00,3177E-2,5C000400,-0724,1029,10105,024.6,045.2,0.225,747.7,01.17,0.508
2014-04-29 01:06:00,3115E-2,5C000400,-0724,1029,10356,024.6,045.2,0.224,747.8,01.17,0.508
2014-04-29 01:07:00,3174E-2,5C000400,-0724,1028,10238,024.6,045.2,0.218,747.7,01.17,0.508
2014-04-29 01:08:00,3191E-2,5C000400,-0724,1028,10356,024.6,045.2,0.208,747.7,01.17,0.508
2014-04-29 01:09:00,3185E-2,5C000400,-0724,1029,10197,024.6,045.2,0.207,747.8,01.17,0.508
2014-04-29 01:10:00,3191E-2,5C000400,-0724,1029,10173,024.7,045.2,0.206,747.8,01.17,0.508
2014-04-29 01:11:00,3160E-2,5C000400,-0724,1031,10231,024.7,045.2,0.201,747.8,01.17,0.508
2014-04-29 01:12:00,3259E-2,5C000400,-0724,1031,10334,024.7,045.2,0.184,747.7,01.17,0.508
2014-04-29 01:13:00,3215E-2,5C000400,-0724,1032,10189,024.7,045.2,0.168,747.7,01.17,0.508
2014-04-29 01:14:00,3209E-2,5C000400,-0724,1033,10186,024.7,045.2,0.147,747.7,01.17,0.508
2014-04-29 01:15:00,3211E-2,5C000400,-0724,1034,10100,024.7,045.2,0.107,747.6,01.17,0.508
2014-04-29 01:16:00,3200E-2,5C000400,-0724,1036,10122,024.7,045.2,0.000,747.6,01.17,0.508
2014-04-29 01:17:00,3242E-2,5C000400,-0724,1039,10172,024.7,045.2,0.000,747.6,01.17,0.508
2014-04-29 01:18:00,3286E-2,5C000400,-0724,1040,10007,024.7,045.2,0.000,747.5,01.17,0.508
2014-04-29 01:19:00,3245E-2,5C000400,-0724,1041,10051,024.7,045.2,0.000,747.5,01.17,0.508
2014-04-29 01:20:00,3232E-2,5C000400,-0724,1042,10165,024.7,045.2,0.000,747.5,01.17,0.508
2014-04-29 01:21:00,3249E-2,5C000400,-0724,1041,10046,024.8,045.2,0.000,747.5,01.17,0.508
2014-04-29 01:22:00,3221E-2,5C000400,-0724,1042,10156,024.7,045.2,0.000,747.6,01.17,0.508
2014-04-29 01:23:00,3219E-2,5C000400,-0724,1041,9887,024.8,045.2,0.000,747.5,01.17,0.508
2014-04-29 01:24:00,3316E-2,5C000400,-0724,1043,10075,024.8,045.2,0.000,747.5,01.17,0.508
2014-04-29 01:25:00,3314E-2,5C000400,-0724,1042,10015,024.8,045.2,0.000,747.6,01.17,0.508
2014-04-29 01:26:00,3227E-2,5C000400,-0724,1044,10131,024.8,045.2,0.000,747.5,01.17,0.508
2014-04-29 01:27:00,3292E-2,5C000400,-0724,1043,10152,024.8,045.2,0.000,747.5,01.17,0.508
2014-04-29 01:28:00,3286E-2,5C000400,-0724,1044,10215,024.8,045.2,0.000,747.6,01.17,0.508
2014-04-29 01:29:00,3279E-2,5C000400,-0724,1044,10083,024.8,045.2,0.000,747.6,01.17,0.508
2014-04-29 01:30:00,3275E-2,5C000400,-0724,1044,10255,024.8,045.2,0.000,747.6,01.17,0.508
2014-04-29 01:31:00,3292E-2,5C000400,-0724,1043,10149,024.8,045.2,0.000,747.6,01.17,0.508
2014-04-29 01:32:00,3299E-2,5C000400,-0724,1044,9912,024.8,045.2,0.000,747.6,01.17,0.508
2014-04-29 01:33:00,3324E-2,5C000400,-0724,1044,10187,024.8,045.2,0.000,747.6,01.17,0.508
2014-04-29 01:34:00,3289E-2,5C000400,-0724,1044,10028,024.9,045.2,0.000,747.6,01.17,0.508
2014-04-29 01:35:00,3327E-2,5C000400,-0724,1045,10174,024.9,045.2,0.000,747.7,01.17,0.508
2014-04-29 01:36:00,3270E-2,5C000400,-0724,1044,10130,024.9,045.2,0.000,747.7,01.17,0.508
2014-04-29 01:37:00,3260E-2,5C000400,-0724,1046,10145,024.9,045.2,0.000,747.6,01.17,0.508
2014-04-29 01:38:00,3330E-2,5C000400,-0724,1045,10084,024.9,045.2,0.000,747.7,01.17,0.508
2014-04-29 01:39:00,3275E-2,5C000400,-0724,1046,10132,024.9,045.2,0.000,747.7,01.17,0.508
2014-04-29 01:40:00,3262E-2,5C000400,-0724,1046,10022,024.9,045.2,0.000,747.8,01.17,0.508
2014-04-29 01:41:00,3263E-2,5C000400,-0724,1045,10062,024.9,045.2,0.000,747.8,01.17,0.508
2014-04-29 01:42:00,3278E-2,5C000400,-0724,1044,10165,024.9,045.2,0.000,747.8,01.17,0.508
2014-04-29 01:43:00,3286E-2,5C000400,-0724,1043,10219,024.9,045.2,0.000,747.8,01.17,0.508
2014-04-29 01:44:00,3273E-2,5C000400,-0724,1043,10113,024.9,045.2,0.000,747.9,01.17,0.508
2014-04-29 01:45:00,3261E-2,5C000400,-0724,1042,10000,024.9,045.2,0.000,748.0,01.17,0.508
2014-04-29 01:46:00,3246E-2,5C000410,-0724,1042,9793,024.9,045.2,0.000,748.0,01.17,0.508
2014-04-29 01:47:00,3291E-2,5C000400,-0724,1041,10181,024.9,045.2,0.000,747.9,01.17,0.508
2014-04-29 01:48:00,3235E-2,5C000400,-0724,1041,10123,025.0,045.2,0.000,747.9,01.17,0.508
2014-04-29 01:49:00,3294E-2,5C000400,-0724,1040,10267,025.0,045.2,0.000,748.1,01.17,0.508
2014-04-29 01:50:00,3284E-2,5C000400,-0724,1041,9783,025.0,045.2,0.000,748.0,01.17,0.508
2014-04-29 01:51:00,3252E-2,5C000400,-0724,1040,10106,024.9,045.2,0.000,747.9,01.17,0.508
2014-04-29 01:52:00,3269E-2,5C000400,-0724,1041,10027,025.0,045.2,0.000,748.0,01.17,0.508
2014-04-29 01:53:00,3281E-2,5C000400,-0724,1039,10156,025.0,045.2,0.000,748.0,01.17,0.508
2014-04-29 01:54:00,3254E-2,5C000400,-0724,1039,10076,025.0,045.2,0.000,748.0,01.17,0.508
2014-04-29 01:55:00,3257E-2,5C000400,-0724,1038,10292,025.0,045.2,0.000,747.9,01.17,0.508
2014-04-29 01:56:00,3249E-2,5C000400,-0724,1038,10235,025.0,045.2,0.000,747.9,01.17,0.508
2014-04-29 01:57:00,3245E-2,5C000400,-0724,1038,10191,025.0,045.2,0.000,747.9,01.17,0.508
2014-04-29 01:58:00,3252E-2,5C000400,-0724,1037,10189,025.0,045.2,0.000,747.9,01.17,0.508
2014-04-29 01:59:00,3242E-2,5C000400,-0724,1037,10223,025.0,045.2,0.000,747.9,01.17,0.508
2014-04-29 02:00:00,3238E-2,5C000400,-0724,1036,10024,025.0,045.2,0.000,747.9,01.17,0.508
2014-04-29 02:01:00,3237E-2,5C000400,-0724,1035,10137,025.0,045.2,0.000,747.9,01.17,0.508
2014-04-29 02:02:00,3214E-2,5C000400,-0724,1037,10159,025.0,045.2,0.000,748.0,01.17,0.508
2014-04-29 02:03:00,3242E-2,5C000400,-0724,1037,10253,025.0,045.2,0.000,747.8,01.17,0.508
2014-04-29 02:04:00,3191E-2,5C000410,-0724,1036,9993,025.0,045.2,0.000,747.9,01.17,0.508
2014-04-29 02:05:00,3245E-2,5C000400,-0724,1036,10319,025.0,045.2,0.000,748.0,01.17,0.508
2014-04-29 02:06:00,3250E-2,5C000400,-0724,1035,10327,025.0,045.2,0.000,747.9,01.17,0.508
2014-04-29 02:07:00,3245E-2,5C000400,-0724,1034,10151,025.0,045.2,0.000,747.8,01.17,0.508
2014-04-29 02:08:00,3203E-2,5C000400,-0724,1035,10226,025.1,045.2,0.000,747.9,01.17,0.508
2014-04-29 02:09:00,3217E-2,5C000400,-0724,1033,10103,025.1,045.2,0.000,748.0,01.17,0.508
2014-04-29 02:10:00,3221E-2,5C000400,-0724,1034,10024,025.1,045.2,0.000,747.8,01.17,0.508
2014-04-29 02:11:00,3154E-2,5C000400,-0724,1033,10166,025.1,045.2,0.000,747.8,01.17,0.508
2014-04-29 02:12:00,3166E-2,5C000400,-0724,1032,10170,025.1,045.2,0.000,747.9,01.17,0.508
2014-04-29 02:13:00,3143E-2,5C000400,-0724,1034,10108,025.1,045.2,0.000,747.9,01.17,0.508
2014-04-29 02:14:00,3147E-2,5C000400,-0724,1034,10184,025.1,045.2,0.000,747.8,01.17,0.508
2014-04-29 02:15:00,3181E-2,5C000400,-0724,1033,10268,025.1,045.2,0.000,747.9,01.17,0.508
2014-04-29 02:16:00,3202E-2,5C000410,-0724,1035,10162,025.1,045.2,0.000,747.8,01.17,0.508
2014-04-29 02:17:00,3166E-2,5C000400,-0724,1034,10130,025.1,045.2,0.000,747.9,01.17,0.508
2014-04-29 02:18:00,3182E-2,5C000400,-0724,1035,10226,025.1,045.2,0.000,747.8,01.17,0.508
2014-04-29 02:19:00,3215E-2,5C000400,-0724,1033,10165,025.1,045.2,0.000,747.8,01.17,0.508
2014-04-29 02:20:00,3205E-2,5C000410,-0724,1034,10198,025.1,045.2,0.000,747.9,01.17,0.508
2014-04-29 02:21:00,3163E-2,5C000400,-0724,1034,9979,025.1,045.2,0.000,747.9,01.17,0.508
2014-04-29 02:22:00,3235E-2,5C000410,-0724,1034,9850,025.2,045.2,0.000,747.8,01.17,0.508
2014-04-29 02:23:00,2754E-2,5C000410,-0724,1053,9911,025.2,045.2,0.000,747.8,01.17,0.508
2014-04-29 02:24:00,2774E-2,5C000400,-0724,1056,10184,025.2,045.2,0.000,747.8,01.17,0.508
2014-04-29 02:25:00,2772E-2,5C000410,-0724,1055,9980,025.2,045.2,0.000,747.8,01.17,0.508
2014-04-29 02:26:00,2822E-2,5C000400,-0724,1055,10057,025.2,045.2,0.000,747.9,01.17,0.508
2014-04-29 02:27:00,2772E-2,5C000400,-0724,1056,10048,025.2,045.2,0.000,747.9,01.17,0.508
2014-04-29 02:28:00,2766E-2,5C000400,-0724,1057,10023,025.1,045.2,0.000,747.9,01.17,0.508
2014-04-29 02:29:00,2793E-2,5C000410,-0724,1056,9965,025.2,045.2,0.000,747.8,01.17,0.508
2014-04-29 02:30:00,2800E-2,5C000410,-0724,1055,9904,025.2,045.2,0.000,747.8,01.17,0.508
2014-04-29 02:31:00,2842E-2,5C000400,-0724,1055,9997,025.2,045.2,0.000,747.9,01.17,0.508
2014-04-29 02:32:00,2833E-2,5C000410,-0724,1056,10018,025.2,045.2,0.000,747.9,01.17,0.508
2014-04-29 02:33:00,2829E-2,5C000410,-0724,1056,9984,025.2,045.2,0.000,747.8,01.17,0.508
2014-04-29 02:34:00,2868E-2,5C000400,-0724,1055,9952,025.2,045.2,0.000,747.9,01.17,0.508
2014-04-29 02:35:00,2818E-2,5C000410,-0724,1054,10016,025.2,045.2,0.000,747.9,01.17,0.508
2014-04-29 02:36:00,2883E-2,5C000410,-0724,1054,9928,025.2,045.2,0.000,747.8,01.17,0.508
2014-04-29 02:37:00,2832E-2,5C000410,-0724,1054,10001,025.2,045.2,0.000,747.9,01.17,0.508
2014-04-29 02:38:00,2850E-2,5C000400,-0724,1054,10004,025.2,045.2,0.000,747.9,01.17,0.508
2014-04-29 02:39:00,2855E-2,5C000400,-0724,1054,10011,025.3,045.2,0.000,747.8,01.17,0.508
2014-04-29 02:40:00,2829E-2,5C000400,-0724,1055,9968,025.3,045.2,0.000,747.9,01.17,0.508
2014-04-29 02:41:00,2855E-2,5C000400,-0724,1054,10073,025.2,045.2,0.000,747.9,01.17,0.508
2014-04-29 02:42:00,2862E-2,5C000410,-0724,1053,9936,025.3,045.2,0.000,747.8,01.17,0.508
2014-04-29 02:43:00,2835E-2,5C000410,-0724,1052,10066,025.2,045.2,0.000,747.8,01.17,0.508
2014-04-29 02:44:00,2894E-2,5C000400,-0724,1052,10067,025.3,045.2,0.000,747.9,01.17,0.508
2014-04-29 02:45:00,2850E-2,5C000400,-0724,1053,10085,025.3,045.2,0.000,747.9,01.17,0.508
2014-04-29 02:46:00,2863E-2,5C000400,-0724,1052,10036,025.3,045.2,0.000,747.8,01.17,0.508
2014-04-29 02:47:00,2870E-2,5C000400,-0724,1052,10126,025.3,045.2,0.000,747.8,01.17,0.508
2014-04-29 02:48:00,2876E-2,5C000400,-0724,1052,10002,025.3,045.2,0.000,747.9,01.17,0.508
2014-04-29 02:49:00,2845E-2,5C000410,-0724,1053,10039,025.3,045.2,0.000,747.8,01.17,0.508
2014-04-29 02:50:00,2857E-2,5C000400,-0724,1051,9982,025.3,045.2,0.000,747.8,01.17,0.508
2014-04-29 02:51:00,2825E-2,5C000410,-0724,1050,10001,025.3,045.2,0.000,747.8,01.17,0.508
2014-04-29 02:52:00,2885E-2,5C000410,-0724,1049,10040,025.3,045.2,0.000,747.9,01.17,0.508
2014-04-29 02:53:00,2878E-2,5C000400,-0724,1049,9951,025.3,045.2,0.000,747.8,01.17,0.508
2014-04-29 02:54:00,2876E-2,5C000400,-0724,1051,9990,025.3,045.2,0.000,747.8,01.17,0.508
2014-04-29 02:55:00,2867E-2,5C000400,-0724,1050,10005,025.3,045.2,0.000,747.8,01.17,0.508
2014-04-29 02:56:00,2892E-2,5C000410,-0724,1050,10114,025.3,045.2,0.000,747.8,01.17,0.508
2014-04-29 02:57:00,2877E-2,5C000400,-0724,1049,10070,025.3,045.2,0.000,747.8,01.17,0.508
2014-04-29 02:58:00,2814E-2,5C000400,-0724,1048,10052,025.3,045.2,0.000,747.9,01.17,0.508
2014-04-29 02:59:00,2851E-2,5C000400,-0724,1047,10110,025.3,045.2,0.000,747.8,01.17,0.508
2014-04-29 03:00:00,2853E-2,5C000400,-0724,1048,10093,025.3,045.2,0.000,747.8,01.17,0.508
2014-04-29 03:01:00,2855E-2,5C000400,-0724,1047,9992,025.3,045.2,0.000,747.8,01.17,0.508
2014-04-29 03:02:00,2897E-2,5C000410,-0724,1048,9760,025.4,045.2,0.000,747.9,01.17,0.508
2014-04-29 03:03:00,2858E-2,5C000410,-0724,1048,9958,025.3,045.2,0.000,747.9,01.17,0.508
2014-04-29 03:04:00,2892E-2,5C000410,-0724,1047,9996,025.4,045.2,0.000,747.9,01.17,0.508
2014-04-29 03:05:00,2896E-2,5C000400,-0724,1047,10032,025.4,045.2,0.000,747.8,01.17,0.508
2014-04-29 03:06:00,2913E-2,5C000410,-0724,1047,9959,025.4,045.2,0.000,747.9,01.17,0.508
2014-04-29 03:07:00,2893E-2,5C000400,-0724,1047,10009,025.4,045.2,0.000,747.9,01.17,0.508
2014-04-29 03:08:00,2948E-2,5C000410,-0724,1047,10111,025.4,045.2,0.000,747.9,01.17,0.508
2014-04-29 03:09:00,2924E-2,5C000400,-0724,1047,10058,025.4,045.2,0.000,747.9,01.17,0.508
2014-04-29 03:10:00,2867E-2,5C000400,-0724,1046,10058,025.4,045.2,0.000,747.9,01.17,0.508
2014-04-29 03:11:00,2914E-2,5C000400,-0724,1047,10175,025.4,045.2,0.000,747.9,01.17,0.508
2014-04-29 03:12:00,2919E-2,5C000410,-0724,1047,10077,025.4,045.2,0.000,747.9,01.17,0.508
2014-04-29 03:13:00,2913E-2,5C000400,-0724,1047,10144,025.4,045.2,0.000,747.9,01.17,0.508
2014-04-29 03:14:00,2931E-2,5C000400,-0724,1047,10043,025.4,045.2,0.000,748.0,01.17,0.508
2014-04-29 03:15:00,2883E-2,5C000400,-0724,1046,10086,025.4,045.2,0.000,747.9,01.17,0.508
2014-04-29 03:16:00,2922E-2,5C000400,-0724,1046,9818,025.4,045.2,0.000,747.9,01.17,0.508
2014-04-29 03:17:00,2922E-2,5C000400,-0724,1045,10176,025.4,045.2,0.000,747.9,01.17,0.508
2014-04-29 03:18:00,2905E-2,5C000400,-0724,1045,9985,025.5,045.2,0.000,747.9,01.17,0.508
2014-04-29 03:19:00,2921E-2,5C000400,-0724,1045,10094,025.4,045.3,0.000,747.9,01.17,0.508
2014-04-29 03:20:00,2955E-2,5C000400,-0724,1045,10199,025.5,045.2,0.000,747.9,01.17,0.508
2014-04-29 03:21:00,2964E-2,5C000400,-0724,1044,10091,025.5,045.2,0.000,748.0,01.17,0.508
2014-04-29 03:22:00,2926E-2,5C000400,-0724,1044,10190,025.5,045.2,0.000,747.9,01.17,0.508
2014-04-29 03:23:00,2975E-2,5C000400,-0724,1044,10056,025.5,045.2,0.000,747.9,01.17,0.508
2014-04-29 03:24:00,2958E-2,5C000400,-0724,1043,10056,025.5,045.2,0.000,747.9,01.17,0.508
2014-04-29 03:25:00,2944E-2,5C000400,-0724,1045,10226,025.5,045.2,0.000,747.9,01.17,0.508
2014-04-29 03:26:00,2960E-2,5C000400,-0724,1043,10029,025.5,045.2,0.000,748.0,01.17,0.508
2014-04-29 03:27:00,2970E-2,5C000400,-0724,1044,10118,025.5,045.2,0.000,747.9,01.17,0.508
2014-04-29 03:28:00,2959E-2,5C000400,-0724,1044,10180,025.5,045.2,0.000,747.9,01.17,0.508
2014-04-29 03:29:00,2932E-2,5C000400,-0724,1044,10142,025.5,045.2,0.000,748.0,01.17,0.508
2014-04-29 03:30:00,2974E-2,5C000400,-0724,1042,10161,025.5,045.2,0.000,748.0,01.17,0.508
2014-04-29 03:31:00,2928E-2,5C000400,-0724,1042,10211,025.6,045.2,0.000,747.9,01.17,0.508
2014-04-29 03:32:00,2915E-2,5C000400,-0724,1042,10055,025.5,045.2,0.000,748.0,01.17,0.508
2014-04-29 03:33:00,2936E-2,5C000410,-0724,1042,9992,025.6,045.2,0.000,748.0,01.17,0.508
2014-04-29 03:34:00,2947E-2,5C000410,-0724,1043,10219,025.6,045.2,0.000,747.9,01.17,0.508
2014-04-29 03:35:00,2972E-2,5C000400,-0724,1041,10203,025.6,045.2,0.000,747.9,01.17,0.508
2014-04-29 03:36:00,2964E-2,5C000410,-0724,1042,10211,025.6,045.2,0.000,748.0,01.17,0.508
2014-04-29 03:37:00,2958E-2,5C000400,-0724,1042,9981,025.6,045.2,0.000,747.9,01.17,0.508
2014-04-29 03:38:00,2969E-2,5C000400,-0724,1042,10036,025.6,045.2,0.000,747.9,01.17,0.508
2014-04-29 03:39:00,2979E-2,5C000400,-0724,1040,10081,025.6,045.2,0.000,748.0,01.17,0.508
2014-04-29 03:40:00,2977E-2,5C000400,-0724,1042,10099,025.6,045.2,0.000,747.9,01.17,0.508
2014-04-29 03:41:00,2976E-2,5C000400,-0724,1041,10141,025.6,045.2,0.000,747.8,01.17,0.508
2014-04-29 03:42:00,2989E-2,5C000400,-0724,1041,10055,025.6,045.2,0.000,747.9,01.17,0.508
2014-04-29 03:43:00,2955E-2,5C000400,-0724,1042,10124,025.6,045.2,0.000,748.0,01.17,0.508
2014-04-29 03:44:00,3003E-2,5C000400,-0724,1040,10175,025.6,045.2,0.000,748.0,01.17,0.508
2014-04-29 03:45:00,2984E-2,5C000400,-0724,1041,10087,025.6,045.2,0.000,747.9,01.17,0.508
2014-04-29 03:46:00,2968E-2,5C000400,-0724,1042,10182,025.6,045.2,0.000,747.9,01.17,0.508
2014-04-29 03:47:00,2954E-2,5C000400,-0724,1042,10136,025.6,045.2,0.000,747.9,01.17,0.508
2014-04-29 03:48:00,3000E-2,5C000400,-0724,1041,10153,025.6,045.2,0.000,747.9,01.17,0.508
2014-04-29 03:49:00,2984E-2,5C000400,-0724,1041,10118,025.7,045.2,0.000,747.9,01.17,0.508
2014-04-29 03:50:00,2985E-2,5C000400,-0724,1041,10090,025.7,045.2,0.000,747.9,01.17,0.508
2014-04-29 03:51:00,2968E-2,5C000400,-0724,1041,10229,025.7,045.2,0.000,747.9,01.17,0.508
2014-04-29 03:52:00,2969E-2,5C000400,-0724,1042,10155,025.7,045.2,0.000,748.0,01.17,0.508
2014-04-29 03:53:00,3001E-2,5C000410,-0724,1041,10135,025.7,045.2,0.000,747.9,01.17,0.508
2014-04-29 03:54:00,2983E-2,5C000400,-0724,1042,10285,025.7,045.2,0.000,747.9,01.17,0.508
2014-04-29 03:55:00,2971E-2,5C000400,-0724,1041,10129,025.7,045.2,0.000,748.0,01.17,0.508
2014-04-29 03:56:00,2977E-2,5C000400,-0724,1039,10113,025.7,045.3,0.000,747.9,01.17,0.508
2014-04-29 03:57:00,2982E-2,5C000400,-0724,1039,10202,025.8,045.2,0.000,747.8,01.17,0.508
2014-04-29 03:58:00,2995E-2,5C000410,-0724,1040,10128,025.7,045.2,0.000,747.9,01.17,0.508
2014-04-29 03:59:00,2974E-2,5C000410,-0724,1040,10242,025.7,045.2,0.000,748.0,01.17,0.508
2014-04-29 04:00:00,2984E-2,5C000400,-0724,1040,10220,025.7,045.2,0.000,747.9,01.17,0.508
2014-04-29 04:01:00,2980E-2,5C000400,-0724,1039,10176,025.8,045.2,0.000,747.9,01.17,0.508
2014-04-29 04:02:00,2979E-2,5C000400,-0724,1040,10131,025.8,045.2,0.000,747.9,01.17,0.508
2014-04-29 04:03:00,2901E-2,5C000400,-0724,1040,10168,025.8,045.2,0.000,747.9,01.17,0.508
2014-04-29 04:04:00,2972E-2,5C000400,-0724,1039,10121,025.8,045.2,0.000,747.9,01.17,0.508
2014-04-29 04:05:00,2950E-2,5C000400,-0724,1039,10149,025.8,045.3,0.000,747.9,01.17,0.508
2014-04-29 04:06:00,2963E-2,5C000400,-0724,1039,10076,025.8,045.2,0.000,748.0,01.17,0.508
2014-04-29 04:07:00,2945E-2,5C000400,-0724,1038,10159,025.8,045.2,0.000,748.0,01.17,0.508
2014-04-29 04:08:00,2896E-2,5C000400,-0724,1039,10056,025.8,045.2,0.000,748.0,01.17,0.508
2014-04-29 04:09:00,2922E-2,5C000400,-0724,1041,9943,025.8,045.2,0.000,747.9,01.17,0.508
2014-04-29 04:10:00,2919E-2,5C000400,-0724,1039,10205,025.8,045.2,0.000,748.0,01.17,0.508
2014-04-29 04:11:00,2959E-2,5C000400,-0724,1037,10151,025.8,045.2,0.000,747.9,01.17,0.508
2014-04-29 04:12:00,2922E-2,5C000400,-0724,1038,10068,025.8,045.2,0.000,748.0,01.17,0.508
2014-04-29 04:13:00,2907E-2,5C000400,-0724,1036,10265,025.9,045.2,0.000,748.0,01.17,0.508
2014-04-29 04:14:00,2912E-2,5C000400,-0724,1036,10248,025.8,045.2,0.000,748.0,01.17,0.508
2014-04-29 04:15:00,2947E-2,5C000400,-0724,1037,10131,025.9,045.2,0.000,748.0,01.17,0.508
2014-04-29 04:16:00,2929E-2,5C000400,-0724,1037,10227,025.9,045.2,0.000,748.0,01.17,0.508
2014-04-29 04:17:00,2909E-2,5C000410,-0724,1037,10092,025.9,045.2,0.000,748.0,01.17,0.508
2014-04-29 04:18:00,2899E-2,5C000400,-0724,1034,9977,025.9,045.2,0.000,748.0,01.17,0.508
2014-04-29 04:19:00,2912E-2,5C000410,-0724,1035,10145,025.9,045.2,0.000,748.0,01.17,0.508
2014-04-29 04:20:00,2922E-2,5C000400,-0724,1036,10030,025.9,045.2,0.000,748.0,01.17,0.508